This is the latest recevied weather packets stored in our database for station/object G4KVI. If no packets are shown the sender has not sent any weather packets the latest 1 day(s).
| Time | Temp. | Humidity | Pressure | Rain* | Wind** | Luminosity | Snow |
|---|---|---|---|---|---|---|---|
| 1777988468 | 15° C | 49% | 1015.2 hPa | 0 mm | 1.34 m/s, 20° | 200 W/m² | - |
| 1777988168 | 15.56° C | 49% | 1015.3 hPa | 0 mm | 1.34 m/s, 323° | 211 W/m² | - |
| 1777987868 | 15° C | 48% | 1015.4 hPa | 0 mm | 1.34 m/s, 329° | 726 W/m² | - |
| 1777987568 | 14.44° C | 51% | 1015.3 hPa | 0 mm | 1.79 m/s, 13° | 572 W/m² | - |
| 1777987268 | 14.44° C | 51% | 1015.5 hPa | 0 mm | 1.34 m/s, 39° | 212 W/m² | - |
| 1777986968 | 15° C | 51% | 1015.3 hPa | 0 mm | 1.79 m/s, 20° | 219 W/m² | - |
| 1777986668 | 15° C | 52% | 1015.4 hPa | 0 mm | 1.34 m/s, 359° | 262 W/m² | - |
| 1777986368 | 15° C | 52% | 1015.5 hPa | 0 mm | 0.89 m/s, 17° | 346 W/m² | - |
| 1777986068 | 15° C | 52% | 1015.7 hPa | 0 mm | 1.34 m/s, 22° | 259 W/m² | - |
| 1777985768 | 15° C | 52% | 1015.4 hPa | 0 mm | 1.79 m/s, 25° | 277 W/m² | - |
| 1777985468 | 15.56° C | 52% | 1015.3 hPa | 0 mm | 1.34 m/s, 11° | 308 W/m² | - |
| 1777985168 | 15° C | 53% | 1015.3 hPa | 0 mm | 1.79 m/s, 334° | 942 W/m² | - |
| 1777984868 | 14.44° C | 54% | 1015.5 hPa | 0 mm | 1.79 m/s, 356° | 517 W/m² | - |
| 1777984568 | 14.44° C | 55% | 1015.4 hPa | 0 mm | 1.34 m/s, 42° | 356 W/m² | - |
| 1777984268 | 15° C | 54% | 1015.5 hPa | 0 mm | 1.34 m/s, 34° | 268 W/m² | - |
| 1777983968 | 15° C | 54% | 1015.5 hPa | 0 mm | 1.34 m/s, 18° | 197 W/m² | - |
| 1777983668 | 14.44° C | 55% | 1015.6 hPa | 0 mm | 1.34 m/s, 46° | 539 W/m² | - |
| 1777983368 | 14.44° C | 58% | 1015.5 hPa | 0 mm | 1.79 m/s, 62° | 328 W/m² | - |
| 1777983068 | 14.44° C | 56% | 1015.6 hPa | 0 mm | 1.79 m/s, 62° | 349 W/m² | - |
| 1777982768 | 14.44° C | 56% | 1015.6 hPa | 0 mm | 1.34 m/s, 33° | 469 W/m² | - |
| 1777982468 | 14.44° C | 57% | 1015.7 hPa | 0 mm | 1.34 m/s, 31° | 321 W/m² | - |
| 1777982168 | 13.89° C | 58% | 1015.7 hPa | 0 mm | 1.79 m/s, 63° | 387 W/m² | - |
| 1777981868 | 13.89° C | 58% | 1015.7 hPa | 0 mm | 1.79 m/s, 68° | 322 W/m² | - |
| 1777981568 | 14.44° C | 57% | 1015.5 hPa | 0 mm | 1.34 m/s, 56° | 321 W/m² | - |
| 1777981268 | 15° C | 56% | 1015.6 hPa | 0 mm | 1.34 m/s, 41° | 366 W/m² | - |
* Rain latest hour (hover to see other rain measurements)
** Current wind speed in m/s (hover to see current wind gust speed)